Regional Weather Roundup
Issued by NWS

Home | Current Version | Previous Version | Text Only | Print | Product List | Glossary Off
Versions: 1 2 3 4 5 6 7 8 9 10 11 12 13 14 15 16 17 18 19 20 21 22 23 24 25 26 27 28 29 30 31 32 33 34 35 36 37 38 39 40 41 42 43 44 45 46 47 48 49 50

000
ASUS45 KSLC 042110
RWRUT

UTAH REGIONAL WEATHER ROUNDUP
NATIONAL WEATHER SERVICE SALT LAKE CITY UT
200 PM MST WED MAR 04 2015

UTZ001>011-023>025-042200-

NORTHERN UTAH

CITY           SKY/WX    TMP DP  RH WIND       PRES   REMARKS
BRIGHAM CITY   PTSUNNY   35  17  47 E5        30.23S WCI  31
HILL AFB       MOSUNNY   36  11  36 SE3       30.21S
LOGAN          PTSUNNY   36  16  44 NE7       30.21F WCI  30
OGDEN          SUNNY     35  17  47 N5        30.21F WCI  31
PROVO AIRPORT  MOSUNNY   36  19  51 VRB6      30.21F WCI  31
SALT LAKE CITY MOSUNNY   37  19  48 CALM      30.22F
VERNAL         SUNNY     31  15  52 S7        30.11F WCI  24
WENDOVER       SUNNY     39  16  38 SE8       30.22F WCI  34
HEBER CITY     SUNNY     34  14  44 CALM      30.15S
WEST JORDAN    SUNNY     36  19  51 NW9       30.22S WCI  29

$$

UTZ012>022-026-027-042200-

SOUTHERN/CENTRAL UTAH

CITY           SKY/WX    TMP DP  RH WIND       PRES   REMARKS
BLANDING       SUNNY     36  17  45 S5        30.13S WCI  32
BRYCE CANYON   SUNNY     27  12  53 NW14      30.10F WCI  16
CEDAR CITY     SUNNY     35  16  45 N10       30.15F WCI  27
DELTA          SUNNY     37  13  36 N8        30.20F WCI  31
HANKSVILLE     SUNNY     43  16  33 NE6       30.14F
MILFORD        MOSUNNY   37  20  50 VRB7G17   30.19F WCI  32
MOAB/CYNLANDS  SUNNY     41  11  29 W9        30.09F
PRICE          SUNNY     36  13  38 NW18G25   30.08F WCI  26
ST GEORGE      CLEAR     48  23  37 S8        30.18F
KANAB          SUNNY     43  18  36 CALM      30.15F

$$

REGIONAL REPORTS     COLORADO/ARIZONA

CITY           SKY/WX    TMP DP  RH WIND       PRES   REMARKS
CRAIG, CO      MOSUNNY   24  10  55 NW12      30.10S WCI  13
GRAND JUNCTION PTSUNNY   39  17  41 NE8G18    30.08F WCI  33
RIFLE          CLOUDY    32  13  45 NW13G23   30.08S WCI  22
MONTROSE       PTSUNNY   37  14  38 NW17G25   30.06F WCI  27
CORTEZ         SUNNY     38  19  46 NW15      30.03S WCI  29
PAGE, AZ       SUNNY     44  14  29 CALM      30.12F
GRAND CANYON   SUNNY     37  11  34 NE9       30.10S WCI  30
KINGMAN        SUNNY     51  26  37 N13G21    30.10F
FLAGSTAFF      SUNNY     36  17  46 NE10      30.07S WCI  28

$$

REGIONAL REPORTS    NEVADA/IDAHO/WYOMING

CITY           SKY/WX    TMP DP  RH WIND       PRES   REMARKS
LAS VEGAS, NV  SUNNY     57  13  17 CALM      30.12F
ELY            SUNNY     35  10  35 N6        30.17F WCI  30
ELKO           SUNNY     41  12  30 VRB6      30.19F
POCATELLO, ID  SUNNY     33   6  32 W6        30.23F WCI  28
EVANSTON, WY   MOSUNNY   27  12  53 W16       30.10S WCI  15
ROCK SPRINGS   MOSUNNY   18  10  71 SW8       30.07F WCI   8

$$


USA.gov is the U.S. government's official web portal to all federal, state and local government web resources and services.